QPF
0.04 0.05 0.05 0.05 0.07 0.09 0.12 0.14 0.15 0.16 0.15 0.14 0.13 0.11 0.11 0.11 0.11 0.10 0.08 0.06 0.05 0.04 0.03 0.02 0.02 0.03 0.03 0.04 0.05 0.05 0.05 0.05 0.05 0.04 0.03 0.04 0.06 0.07 0.07 0.04 0.03 0.03 0.03
0.02 0.03 0.04 0.04 0.05 0.07 0.07 0.10 0.13 0.14 0.15 0.15 0.14 0.12 0.13 0.14 0.15 0.13 0.11 0.09 0.08 0.06 0.06 0.05 0.05 0.05 0.05 0.05 0.05 0.05 0.05 0.04 0.05 0.04 0.03 0.04 0.06 0.06 0.06 0.07 0.05 0.03 0.03
0.02 0.03 0.03 0.03 0.04 0.06 0.07 0.06 0.08 0.10 0.11 0.12 0.12 0.12 0.12 0.12 0.15 0.16 0.14 0.12 0.11 0.09 0.07 0.07 0.06 0.06 0.06 0.06 0.06 0.06 0.05 0.04 0.04 0.04 0.04 0.04 0.05 0.06 0.07 0.07 0.06 0.04 0.03
0.02 0.03 0.02 0.03 0.04 0.05 0.07 0.07 0.06 0.06 0.08 0.09 0.08 0.08 0.09 0.08 0.10 0.14 0.16 0.15 0.13 0.11 0.09 0.07 0.06 0.06 0.06 0.06 0.06 0.06 0.06 0.05 0.05 0.05 0.05 0.05 0.06 0.06 0.06 0.07 0.07 0.06 0.04
0.02 0.02 0.02 0.02 0.03 0.03 0.05 0.07 0.07 0.06 0.06 0.07 0.07 0.06 0.07 0.07 0.07 0.09 0.13 0.16 0.16 0.13 0.11 0.09 0.08 0.07 0.07 0.07 0.07 0.07 0.07 0.07 0.06 0.05 0.06 0.06 0.07 0.07 0.06 0.06 0.05 0.05 0.05
0.02 0.02 0.03 0.02 0.02 0.03 0.03 0.05 0.07 0.08 0.07 0.06 0.06 0.06 0.06 0.06 0.06 0.07 0.09 0.12 0.16 0.17 0.13 0.10 0.08 0.08 0.07 0.08 0.09 0.10 0.10 0.09 0.08 0.07 0.07 0.07 0.06 0.06 0.06 0.06 0.06 0.06 0.05
0.03 0.02 0.02 0.03 0.03 0.04 0.04 0.05 0.06 0.07 0.09 0.09 0.07 0.05 0.06 0.06 0.05 0.06 0.08 0.08 0.11 0.16 0.18 0.14 0.11 0.10 0.09 0.07 0.08 0.10 0.12 0.12 0.11 0.09 0.08 0.07 0.07 0.06 0.07 0.07 0.06 0.05 0.04
0.03 0.02 0.02 0.02 0.03 0.03 0.03 0.04 0.06 0.07 0.08 0.11 0.11 0.09 0.08 0.07 0.06 0.05 0.06 0.07 0.08 0.11 0.15 0.17 0.15 0.13 0.11 0.10 0.10 0.10 0.11 0.11 0.12 0.10 0.08 0.07 0.06 0.06 0.06 0.06 0.06 0.06 0.05
0.03 0.03 0.02 0.02 0.02 0.02 0.02 0.03 0.04 0.05 0.07 0.08 0.11 0.12 0.11 0.10 0.09 0.07 0.06 0.06 0.07 0.08 0.10 0.13 0.14 0.13 0.12 0.11 0.11 0.11 0.11 0.10 0.09 0.08 0.08 0.08 0.07 0.06 0.05 0.05 0.06 0.08 0.07
0.03 0.03 0.03 0.02 0.02 0.02 0.03 0.03 0.04 0.04 0.05 0.07 0.08 0.09 0.09 0.09 0.08 0.07 0.07 0.07 0.08 0.08 0.08 0.09 0.09 0.08 0.08 0.07 0.08 0.09 0.09 0.09 0.09 0.09 0.08 0.07 0.06 0.05 0.05 0.04 0.04 0.06 0.07
0.03 0.03 0.03 0.02 0.02 0.02 0.03 0.04 0.05 0.04 0.05 0.05 0.06 0.07 0.07 0.08 0.08 0.07 0.06 0.07 0.07 0.07 0.08 0.08 0.07 0.07 0.06 0.06 0.06 0.07 0.07 0.07 0.08 0.08 0.08 0.07 0.06 0.05 0.05 0.05 0.04 0.04 0.06
0.03 0.03 0.02 0.02 0.02 0.02 0.03 0.05 0.05 0.05 0.05 0.05 0.05 0.06 0.07 0.07 0.07 0.06 0.05 0.06 0.06 0.06 0.06 0.06 0.06 0.06 0.07 0.07 0.06 0.06 0.07 0.07 0.07 0.07 0.07 0.06 0.05 0.04 0.04 0.05 0.05 0.04 0.04
0.03 0.03 0.03 0.03 0.03 0.03 0.04 0.05 0.06 0.06 0.06 0.05 0.05 0.05 0.05 0.06 0.05 0.05 0.05 0.05 0.05 0.05 0.05 0.05 0.04 0.04 0.05 0.06 0.06 0.06 0.06 0.06 0.07 0.07 0.06 0.05 0.04 0.03 0.03 0.03 0.04 0.04 0.04
0.02 0.03 0.03 0.03 0.04 0.04 0.05 0.06 0.05 0.05 0.05 0.05 0.05 0.04 0.05 0.04 0.04 0.04 0.04 0.04 0.04 0.03 0.04 0.04 0.03 0.03 0.03 0.04 0.05 0.06 0.06 0.06 0.07 0.07 0.06 0.05 0.04 0.03 0.03 0.03 0.03 0.05 0.05
0.03 0.03 0.03 0.04 0.05 0.05 0.06 0.06 0.05 0.04 0.04 0.05 0.05 0.05 0.05 0.04 0.03 0.03 0.03 0.04 0.05 0.04 0.03 0.03 0.02 0.03 0.03 0.04 0.04 0.05 0.06 0.06 0.07 0.06 0.06 0.05 0.05 0.05 0.04 0.04 0.04 0.05 0.06
0.03 0.04 0.04 0.05 0.05 0.06 0.06 0.06 0.05 0.04 0.04 0.05 0.05 0.05 0.06 0.05 0.04 0.03 0.03 0.03 0.05 0.05 0.04 0.03 0.03 0.03 0.03 0.04 0.04 0.04 0.05 0.06 0.06 0.06 0.06 0.05 0.05 0.05 0.05 0.05 0.05 0.05 0.06
0.04 0.05 0.05 0.06 0.06 0.06 0.06 0.06 0.05 0.05 0.04 0.04 0.04 0.05 0.05 0.05 0.05 0.04 0.04 0.04 0.04 0.05 0.04 0.03 0.03 0.03 0.03 0.04 0.04 0.04 0.04 0.05 0.05 0.05 0.05 0.05 0.05 0.05 0.06 0.06 0.06 0.06 0.06
0.05 0.05 0.05 0.06 0.07 0.07 0.06 0.05 0.04 0.04 0.04 0.04 0.04 0.05 0.05 0.05 0.05 0.04 0.04 0.04 0.05 0.05 0.04 0.03 0.03 0.02 0.03 0.03 0.04 0.04 0.04 0.04 0.04 0.04 0.05 0.05 0.04 0.04 0.04 0.05 0.05 0.06 0.06
0.04 0.04 0.05 0.06 0.07 0.07 0.07 0.06 0.05 0.04 0.03 0.03 0.04 0.04 0.05 0.04 0.04 0.04 0.04 0.04 0.05 0.05 0.04 0.03 0.03 0.03 0.03 0.03 0.03 0.04 0.04 0.04 0.04 0.04 0.04 0.05 0.05 0.04 0.04 0.04 0.04 0.05 0.05
0.04 0.04 0.05 0.07 0.07 0.07 0.07 0.07 0.06 0.04 0.03 0.03 0.04 0.04 0.04 0.04 0.05 0.04 0.04 0.04 0.03 0.04 0.03 0.03 0.03 0.03 0.03 0.03 0.03 0.04 0.04 0.04 0.04 0.04 0.04 0.05 0.05 0.05 0.04 0.04 0.04 0.04 0.05
0.04 0.05 0.05 0.06 0.07 0.07 0.07 0.07 0.07 0.05 0.04 0.04 0.04 0.04 0.04 0.04 0.04 0.04 0.03 0.03 0.03 0.03 0.03 0.03 0.03 0.03 0.03 0.03 0.03 0.04 0.04 0.04 0.03 0.04 0.04 0.04 0.04 0.04 0.04 0.04 0.03 0.03 0.03
0.04 0.04 0.04 0.05 0.06 0.06 0.06 0.07 0.07 0.06 0.05 0.04 0.04 0.04 0.04 0.04 0.04 0.03 0.03 0.03 0.03 0.02 0.03 0.03 0.02 0.02 0.03 0.03 0.03 0.04 0.04 0.04 0.03 0.04 0.04 0.03 0.03 0.03 0.03 0.03 0.03 0.03 0.03
0.04 0.04 0.03 0.04 0.05 0.05 0.06 0.06 0.07 0.06 0.06 0.05 0.05 0.05 0.04 0.04 0.04 0.03 0.03 0.03 0.03 0.03 0.02 0.02 0.02 0.02 0.02 0.03 0.03 0.03 0.04 0.04 0.04 0.04 0.04 0.03 0.03 0.03 0.02 0.03 0.02 0.02 0.02
0.03 0.03 0.03 0.03 0.04 0.04 0.05 0.05 0.06 0.06 0.06 0.06 0.05 0.05 0.05 0.05 0.04 0.04 0.03 0.03 0.03 0.02 0.02 0.02 0.02 0.02 0.02 0.02 0.03 0.03 0.03 0.03 0.04 0.04 0.04 0.04 0.03 0.02 0.02 0.02 0.02 0.02 0.02
0.03 0.03 0.03 0.03 0.03 0.03 0.04 0.04 0.05 0.05 0.05 0.05 0.05 0.05 0.04 0.04 0.03 0.03 0.03 0.03 0.02 0.02 0.02 0.02 0.02 0.02 0.02 0.02 0.02 0.03 0.03 0.03 0.04 0.04 0.04 0.04 0.03 0.03 0.02 0.02 0.02 0.02 0.02
0.03 0.03 0.03 0.03 0.03 0.03 0.04 0.04 0.04 0.04 0.04 0.04 0.04 0.03 0.03 0.03 0.02 0.02 0.02 0.02 0.02 0.02 0.02 0.02 0.02 0.02 0.02 0.02 0.02 0.02 0.02 0.02 0.02 0.03 0.03 0.03 0.03 0.03 0.02 0.02 0.02 0.02 0.02
MSLP
1022.19 1021.47 1020.66 1019.67 1018.45 1016.96 1015.18 1013.17 1010.97 1008.69 1006.44 1004.32 1002.46 1000.90 999.69 998.83 998.29 998.03 997.98 998.09 998.31 998.62 999.01 999.50 1000.10 1000.83 1001.71 1002.75 1003.93 1005.23 1006.62 1008.05 1009.47 1010.87 1012.19 1013.43 1014.58 1015.64 1016.62 1017.54 1018.40 1019.21 1019.99
1021.93 1021.17 1020.32 1019.33 1018.14 1016.70 1015.01 1013.08 1010.96 1008.72 1006.46 1004.27 1002.27 1000.53 999.11 998.02 997.27 996.83 996.66 996.70 996.91 997.26 997.72 998.29 998.96 999.75 1000.67 1001.74 1002.94 1004.26 1005.67 1007.13 1008.61 1010.07 1011.46 1012.77 1013.97 1015.07 1016.07 1016.98 1017.83 1018.62 1019.38
1021.81 1021.02 1020.14 1019.14 1017.97 1016.61 1015.02 1013.21 1011.22 1009.09 1006.89 1004.71 1002.65 1000.79 999.19 997.89 996.91 996.25 995.88 995.77 995.87 996.15 996.57 997.12 997.79 998.60 999.53 1000.62 1001.84 1003.19 1004.64 1006.16 1007.70 1009.23 1010.69 1012.06 1013.31 1014.44 1015.45 1016.37 1017.19 1017.96 1018.69
1021.81 1020.99 1020.09 1019.09 1017.95 1016.66 1015.19 1013.54 1011.71 1009.75 1007.68 1005.59 1003.55 1001.64 999.92 998.44 997.25 996.36 995.75 995.42 995.32 995.43 995.72 996.16 996.76 997.52 998.42 999.49 1000.72 1002.08 1003.57 1005.13 1006.72 1008.30 1009.82 1011.24 1012.53 1013.69 1014.72 1015.63 1016.44 1017.20 1017.91
1021.88 1021.06 1020.14 1019.14 1018.04 1016.83 1015.49 1014.01 1012.38 1010.62 1008.74 1006.80 1004.85 1002.97 1001.20 999.61 998.25 997.13 996.29 995.70 995.35 995.23 995.32 995.59 996.05 996.68 997.50 998.50 999.68 1001.02 1002.49 1004.06 1005.67 1007.27 1008.82 1010.26 1011.58 1012.76 1013.80 1014.72 1015.54 1016.30 1017.01
1021.98 1021.17 1020.26 1019.27 1018.21 1017.08 1015.87 1014.56 1013.13 1011.59 1009.94 1008.20 1006.41 1004.61 1002.87 1001.24 999.76 998.48 997.42 996.59 996.00 995.63 995.48 995.53 995.79 996.25 996.92 997.79 998.86 1000.11 1001.50 1003.01 1004.58 1006.15 1007.67 1009.11 1010.43 1011.62 1012.68 1013.62 1014.47 1015.26 1015.99
1022.07 1021.29 1020.40 1019.44 1018.43 1017.38 1016.28 1015.13 1013.91 1012.59 1011.17 1009.65 1008.05 1006.40 1004.75 1003.14 1001.62 1000.24 999.03 998.02 997.21 996.62 996.23 996.06 996.09 996.34 996.81 997.49 998.38 999.47 1000.71 1002.08 1003.52 1004.99 1006.43 1007.81 1009.10 1010.29 1011.36 1012.34 1013.24 1014.08 1014.86
1022.11 1021.40 1020.56 1019.65 1018.69 1017.71 1016.72 1015.71 1014.66 1013.53 1012.33 1011.03 1009.63 1008.15 1006.63 1005.11 1003.63 1002.24 1000.96 999.84 998.89 998.12 997.55 997.17 996.99 997.02 997.25 997.71 998.36 999.20 1000.21 1001.36 1002.60 1003.88 1005.18 1006.45 1007.67 1008.82 1009.90 1010.92 1011.88 1012.79 1013.65
1022.12 1021.49 1020.73 1019.88 1018.99 1018.09 1017.19 1016.28 1015.37 1014.40 1013.38 1012.26 1011.05 1009.76 1008.40 1007.01 1005.62 1004.28 1003.02 1001.88 1000.87 1000.02 999.32 998.79 998.43 998.25 998.26 998.45 998.83 999.38 1000.10 1000.95 1001.92 1002.96 1004.04 1005.15 1006.25 1007.33 1008.40 1009.43 1010.44 1011.43 1012.38
1022.09 1021.57 1020.90 1020.14 1019.33 1018.51 1017.69 1016.87 1016.05 1015.21 1014.31 1013.34 1012.29 1011.16 1009.96 1008.72 1007.47 1006.24 1005.07 1003.98 1003.00 1002.13 1001.39 1000.77 1000.29 999.94 999.74 999.68 999.77 1000.02 1000.41 1000.93 1001.57 1002.31 1003.14 1004.03 1004.97 1005.94 1006.95 1007.98 1009.02 1010.06 1011.08
1022.04 1021.64 1021.09 1020.44 1019.72 1018.98 1018.23 1017.48 1016.73 1015.97 1015.16 1014.30 1013.36 1012.36 1011.31 1010.22 1009.11 1008.03 1006.99 1006.02 1005.12 1004.32 1003.59 1002.96 1002.41 1001.94 1001.57 1001.30 1001.13 1001.07 1001.13 1001.32 1001.62 1002.04 1002.58 1003.22 1003.95 1004.78 1005.68 1006.65 1007.68 1008.73 1009.79
1021.97 1021.70 1021.27 1020.74 1020.13 1019.48 1018.80 1018.12 1017.42 1016.71 1015.96 1015.16 1014.31 1013.41 1012.47 1011.51 1010.55 1009.62 1008.73 1007.90 1007.14 1006.43 1005.78 1005.18 1004.62 1004.09 1003.61 1003.16 1002.78 1002.47 1002.24 1002.11 1002.10 1002.21 1002.44 1002.81 1003.32 1003.95 1004.70 1005.55 1006.50 1007.50 1008.53
1021.88 1021.72 1021.43 1021.02 1020.52 1019.97 1019.38 1018.76 1018.12 1017.44 1016.73 1015.98 1015.18 1014.35 1013.50 1012.65 1011.81 1011.02 1010.27 1009.59 1008.96 1008.38 1007.83 1007.30 1006.77 1006.23 1005.69 1005.14 1004.61 1004.11 1003.65 1003.27 1002.98 1002.81 1002.77 1002.88 1003.13 1003.53 1004.08 1004.76 1005.55 1006.43 1007.36
1021.75 1021.69 1021.51 1021.22 1020.85 1020.40 1019.91 1019.36 1018.78 1018.15 1017.48 1016.77 1016.01 1015.24 1014.45 1013.68 1012.94 1012.26 1011.64 1011.08 1010.58 1010.11 1009.67 1009.22 1008.75 1008.25 1007.70 1007.12 1006.50 1005.88 1005.28 1004.72 1004.24 1003.84 1003.57 1003.43 1003.43 1003.58 1003.88 1004.33 1004.90 1005.57 1006.33
1021.57 1021.58 1021.49 1021.31 1021.05 1020.73 1020.33 1019.88 1019.38 1018.81 1018.19 1017.53 1016.82 1016.09 1015.36 1014.65 1013.99 1013.39 1012.85 1012.39 1011.99 1011.62 1011.27 1010.91 1010.51 1010.07 1009.56 1008.98 1008.36 1007.71 1007.04 1006.39 1005.77 1005.23 1004.77 1004.42 1004.19 1004.09 1004.12 1004.29 1004.58 1004.99 1005.50
1021.34 1021.39 1021.37 1021.28 1021.12 1020.90 1020.62 1020.28 1019.86 1019.38 1018.84 1018.24 1017.59 1016.91 1016.24 1015.58 1014.98 1014.44 1013.97 1013.57 1013.24 1012.94 1012.66 1012.37 1012.04 1011.66 1011.21 1010.69 1010.11 1009.48 1008.83 1008.16 1007.50 1006.87 1006.29 1005.78 1005.35 1005.01 1004.77 1004.64 1004.63 1004.73 1004.94
1021.09 1021.14 1021.16 1021.14 1021.07 1020.95 1020.78 1020.54 1020.24 1019.86 1019.40 1018.88 1018.30 1017.70 1017.08 1016.49 1015.94 1015.44 1015.02 1014.66 1014.37 1014.11 1013.87 1013.63 1013.35 1013.03 1012.66 1012.21 1011.71 1011.15 1010.55 1009.93 1009.28 1008.63 1007.99 1007.37 1006.78 1006.23 1005.75 1005.33 1005.01 1004.78 1004.68
1020.85 1020.89 1020.92 1020.94 1020.94 1020.91 1020.83 1020.70 1020.50 1020.22 1019.86 1019.44 1018.95 1018.42 1017.88 1017.35 1016.85 1016.40 1016.01 1015.68 1015.40 1015.17 1014.95 1014.73 1014.50 1014.22 1013.91 1013.54 1013.12 1012.65 1012.13 1011.58 1010.98 1010.36 1009.70 1009.02 1008.32 1007.62 1006.92 1006.26 1005.65 1005.13 1004.73
1020.66 1020.67 1020.71 1020.76 1020.81 1020.84 1020.84 1020.79 1020.68 1020.49 1020.23 1019.89 1019.49 1019.05 1018.59 1018.12 1017.68 1017.28 1016.93 1016.62 1016.36 1016.13 1015.92 1015.71 1015.48 1015.23 1014.96 1014.64 1014.29 1013.90 1013.47 1012.99 1012.47 1011.90 1011.27 1010.57 1009.81 1009.00 1008.16 1007.30 1006.47 1005.70 1005.04
1020.54 1020.54 1020.58 1020.65 1020.72 1020.80 1020.85 1020.86 1020.81 1020.69 1020.50 1020.24 1019.92 1019.56 1019.17 1018.78 1018.40 1018.05 1017.74 1017.45 1017.20 1016.97 1016.75 1016.53 1016.30 1016.05 1015.79 1015.50 1015.18 1014.85 1014.48 1014.07 1013.62 1013.11 1012.52 1011.84 1011.07 1010.22 1009.29 1008.32 1007.33 1006.39 1005.53
1020.50 1020.50 1020.55 1020.63 1020.72 1020.81 1020.89 1020.92 1020.90 1020.82 1020.67 1020.46 1020.20 1019.90 1019.58 1019.26 1018.94 1018.65 1018.38 1018.12 1017.89 1017.66 1017.42 1017.18 1016.92 1016.65 1016.36 1016.06 1015.75 1015.43 1015.10 1014.74 1014.34 1013.88 1013.35 1012.71 1011.97 1011.13 1010.19 1009.17 1008.12 1007.08 1006.10
1020.51 1020.53 1020.59 1020.68 1020.78 1020.88 1020.95 1020.98 1020.96 1020.88 1020.74 1020.55 1020.31 1020.05 1019.78 1019.52 1019.26 1019.02 1018.79 1018.57 1018.35 1018.12 1017.87 1017.60 1017.30 1016.98 1016.65 1016.31 1015.97 1015.63 1015.30 1014.95 1014.59 1014.17 1013.70 1013.12 1012.45 1011.66 1010.76 1009.76 1008.72 1007.65 1006.62
1020.50 1020.56 1020.65 1020.75 1020.86 1020.94 1020.99 1020.99 1020.94 1020.83 1020.67 1020.47 1020.24 1019.99 1019.75 1019.52 1019.31 1019.11 1018.92 1018.73 1018.53 1018.30 1018.03 1017.73 1017.38 1017.01 1016.62 1016.22 1015.82 1015.44 1015.08 1014.73 1014.37 1014.00 1013.57 1013.07 1012.48 1011.78 1010.96 1010.05 1009.06 1008.03 1007.02
1020.42 1020.52 1020.64 1020.76 1020.86 1020.92 1020.94 1020.90 1020.80 1020.65 1020.44 1020.21 1019.96 1019.72 1019.49 1019.28 1019.10 1018.93 1018.77 1018.60 1018.40 1018.17 1017.88 1017.54 1017.15 1016.72 1016.26 1015.80 1015.34 1014.92 1014.52 1014.15 1013.80 1013.45 1013.08 1012.66 1012.15 1011.55 1010.85 1010.04 1009.14 1008.18 1007.21
1020.20 1020.35 1020.50 1020.63 1020.73 1020.77 1020.75 1020.67 1020.52 1020.31 1020.07 1019.80 1019.52 1019.26 1019.02 1018.82 1018.64 1018.49 1018.34 1018.18 1017.98 1017.73 1017.43 1017.05 1016.62 1016.14 1015.63 1015.11 1014.60 1014.13 1013.70 1013.32 1012.98 1012.67 1012.35 1012.00 1011.58 1011.09 1010.49 1009.79 1008.99 1008.11 1007.20
1019.85 1020.03 1020.20 1020.34 1020.43 1020.45 1020.41 1020.28 1020.09 1019.84 1019.56 1019.25 1018.95 1018.66 1018.41 1018.19 1018.01 1017.85 1017.69 1017.51 1017.29 1017.02 1016.69 1016.28 1015.81 1015.29 1014.74 1014.19 1013.66 1013.17 1012.73 1012.36 1012.04 1011.76 1011.49 1011.21 1010.89 1010.48 1009.98 1009.38 1008.66 1007.85 1006.98
Thickness
5403 5406 5409 5413 5417 5420 5424 5428 5432 5437 5440 5445 5448 5450 5454 5459 5462 5465 5469 5473 5477 5480 5483 5487 5491 5495 5499 5503 5507 5512 5516 5520 5525 5531 5535 5539 5543 5546 5548 5550 5552 5553 5554
5393 5395 5398 5402 5406 5410 5414 5418 5422 5426 5430 5434 5436 5439 5443 5449 5452 5456 5460 5464 5467 5471 5474 5477 5481 5485 5489 5493 5497 5502 5507 5511 5515 5520 5525 5528 5533 5536 5539 5540 5543 5544 5545
5381 5385 5388 5391 5394 5398 5402 5407 5411 5415 5419 5423 5425 5428 5432 5437 5442 5446 5449 5453 5458 5461 5464 5467 5471 5474 5478 5483 5487 5492 5497 5502 5506 5511 5516 5518 5523 5526 5528 5530 5532 5534 5535
5371 5374 5377 5379 5382 5386 5391 5395 5400 5404 5409 5411 5414 5418 5422 5427 5431 5435 5438 5442 5447 5451 5454 5458 5461 5464 5468 5472 5478 5482 5487 5491 5496 5500 5504 5507 5511 5514 5517 5519 5521 5523 5524
5359 5363 5366 5369 5372 5376 5380 5385 5389 5393 5397 5400 5404 5408 5411 5415 5420 5424 5428 5433 5437 5441 5445 5448 5451 5455 5459 5463 5468 5473 5477 5481 5486 5490 5494 5497 5502 5504 5507 5509 5511 5512 5513
5348 5351 5354 5356 5360 5364 5368 5373 5377 5381 5385 5389 5393 5397 5401 5405 5410 5413 5418 5422 5427 5430 5435 5438 5441 5443 5448 5453 5458 5463 5467 5472 5477 5480 5484 5489 5494 5496 5497 5498 5499 5501 5503
5338 5340 5343 5346 5350 5354 5357 5361 5366 5369 5373 5377 5382 5385 5389 5394 5398 5402 5406 5411 5415 5419 5422 5426 5430 5434 5437 5441 5446 5451 5456 5461 5466 5471 5474 5479 5484 5486 5487 5489 5489 5491 5494
5328 5330 5332 5335 5339 5342 5345 5350 5353 5356 5360 5365 5369 5373 5376 5381 5386 5390 5394 5399 5403 5407 5411 5415 5419 5423 5426 5430 5435 5440 5445 5449 5454 5458 5464 5469 5472 5475 5477 5479 5479 5478 5479
5318 5320 5321 5323 5327 5330 5334 5338 5341 5344 5347 5351 5356 5360 5364 5369 5373 5378 5381 5385 5391 5396 5400 5403 5407 5411 5416 5419 5424 5429 5434 5438 5441 5445 5450 5454 5458 5462 5464 5463 5464 5466 5468
5308 5310 5311 5313 5316 5319 5322 5325 5328 5331 5334 5338 5343 5348 5352 5356 5361 5366 5369 5375 5381 5385 5388 5392 5395 5400 5405 5408 5413 5418 5423 5427 5429 5432 5435 5439 5444 5448 5450 5452 5454 5456 5456
5299 5300 5302 5304 5306 5308 5311 5314 5316 5319 5322 5325 5330 5335 5339 5344 5348 5353 5358 5362 5368 5372 5377 5381 5384 5388 5394 5398 5402 5406 5412 5415 5417 5420 5423 5426 5430 5433 5435 5437 5439 5442 5444
5289 5291 5292 5294 5296 5298 5300 5302 5304 5306 5309 5312 5317 5322 5327 5331 5336 5340 5345 5350 5355 5359 5365 5368 5372 5377 5382 5386 5389 5394 5398 5401 5404 5407 5410 5414 5417 5419 5421 5423 5425 5427 5430
5279 5281 5282 5284 5286 5287 5289 5291 5293 5295 5297 5301 5305 5310 5315 5319 5322 5328 5333 5337 5341 5345 5350 5355 5359 5363 5368 5372 5376 5379 5383 5387 5391 5395 5398 5401 5403 5405 5407 5408 5410 5412 5414
5270 5271 5273 5274 5276 5278 5279 5281 5283 5284 5286 5289 5293 5298 5302 5306 5310 5314 5319 5323 5328 5331 5335 5340 5345 5348 5353 5357 5361 5365 5369 5373 5377 5381 5384 5386 5388 5391 5393 5395 5397 5398 5400
5261 5262 5264 5265 5267 5268 5270 5271 5272 5274 5276 5278 5282 5285 5289 5294 5299 5302 5307 5311 5315 5319 5322 5326 5330 5333 5338 5342 5346 5350 5354 5358 5363 5367 5369 5372 5375 5378 5379 5381 5383 5385 5386
5252 5254 5255 5256 5258 5259 5261 5262 5263 5265 5267 5270 5273 5276 5280 5284 5288 5291 5294 5298 5303 5307 5310 5313 5316 5320 5324 5328 5332 5335 5339 5344 5348 5351 5355 5358 5361 5364 5366 5367 5369 5372 5373
5242 5244 5246 5247 5248 5250 5251 5252 5254 5255 5257 5260 5263 5266 5269 5272 5276 5279 5282 5286 5290 5294 5296 5299 5303 5306 5310 5314 5318 5321 5325 5328 5332 5336 5340 5343 5347 5349 5351 5353 5356 5358 5360
5234 5236 5237 5238 5239 5240 5241 5243 5244 5246 5248 5250 5252 5256 5259 5262 5264 5268 5271 5274 5277 5280 5282 5286 5290 5293 5296 5300 5304 5307 5311 5314 5318 5322 5325 5329 5332 5335 5337 5339 5341 5344 5346
5226 5227 5228 5229 5231 5231 5233 5234 5235 5236 5237 5240 5243 5245 5248 5251 5254 5257 5260 5262 5265 5267 5270 5273 5277 5280 5284 5287 5291 5294 5297 5301 5304 5308 5311 5314 5317 5320 5322 5324 5327 5329 5331
5219 5221 5221 5222 5222 5223 5224 5225 5226 5227 5228 5230 5232 5235 5238 5241 5244 5246 5248 5251 5253 5256 5258 5261 5264 5267 5271 5274 5278 5281 5284 5288 5291 5294 5297 5301 5303 5306 5309 5311 5313 5314 5316
5212 5213 5214 5214 5214 5215 5216 5217 5217 5218 5219 5221 5223 5225 5230 5231 5233 5236 5238 5240 5243 5245 5248 5250 5252 5256 5259 5262 5266 5269 5273 5276 5279 5282 5284 5287 5290 5292 5295 5297 5299 5301 5302
5206 5206 5206 5206 5206 5207 5208 5209 5209 5210 5211 5213 5215 5217 5220 5222 5224 5226 5228 5230 5232 5235 5237 5239 5242 5246 5249 5251 5255 5258 5261 5264 5267 5270 5272 5274 5277 5280 5282 5284 5287 5288 5290
5199 5199 5199 5199 5199 5200 5201 5201 5201 5202 5203 5204 5206 5208 5210 5212 5214 5216 5218 5220 5223 5225 5227 5229 5232 5235 5239 5241 5244 5247 5249 5252 5255 5258 5260 5262 5265 5268 5270 5272 5274 5276 5277
5192 5192 5192 5192 5192 5193 5193 5193 5194 5195 5196 5197 5199 5200 5202 5203 5205 5207 5209 5211 5213 5215 5217 5220 5222 5225 5228 5231 5233 5236 5239 5242 5244 5247 5249 5252 5254 5256 5258 5260 5262 5263 5265
5186 5186 5186 5185 5185 5185 5186 5186 5186 5187 5188 5190 5191 5192 5194 5195 5196 5198 5200 5202 5204 5206 5208 5211 5213 5216 5219 5222 5224 5226 5229 5232 5234 5237 5239 5241 5243 5245 5247 5248 5250 5251 5252
5180 5180 5180 5179 5179 5179 5179 5180 5180 5180 5181 5182 5184 5185 5186 5187 5189 5190 5192 5194 5196 5198 5200 5202 5205 5207 5210 5212 5215 5217 5219 5222 5225 5227 5229 5231 5232 5234 5236 5237 5238 5239 5240